SCP
0 0 0 0 0 0 0 0 0 0 0 0 0 0 0 0 0 0 0 0 0 0 0 0 0 0 0 0 0 0 0 0 0 0 0 0 0 0 0 0 0 0 0 0
0 0 0 0 0 0 0 0 0 0 0 0 0 0 0 0 0 0 0 0 0 0 0 0 0 0 0 0 0 0 0 0 0 0 0 0 0 0 0 0 0 0 0 0
0 0 0 0 0 0 0 0 0 0 0 0 0 0 0 0 0 0 0 0 0 0 0 0 0 0 0 0 0 0 0 0 0 0 0 0 0 0 0 0 0 0 0 0
0 0 0 0 0 0 0 0 0 0 0 0 0 0 0 0 0 0 0 0 0 0 0 0 0 0 0 0 0 0 0 0 0 0 0 0 0 0 0 0 0 0 0 0
0 0 0 0 0 0 0 0 0 0 0 0 0 0 0 0 0 0 0 0 0 0 0 0 0 0 0 0 0 0 0 0 0 0 0 0 0 0 0 0 0 0 0 0
0 0 0 0 0 0 0 0 0 0 0 0 0 0 0 0 0 0 0 0 0 0 0 0 0 0 0 0 0 0 0 0 0 0 0 0 0 0 0 0 0 0 0 0
0 0 0 0 0 0 0 0 0 0 0 0 0 0 0 0 0 0 0 0 0 0 0 0 0 0 0 0 0 0 0 0 0 0 0 0 0 0 0 0 0 0 0 0
0 0 0 0 0 0 0 0 0 0 0 0 0 0 0 0 0 0 0 0 0 0 0 0 0 0 0 0 0 0 0 0 0 0 0 0 0 0 0 0 0 0 0 0
0 0 0 0 0 0 0 0 0 0 0 0 0 0 0 0 0 0 0 0 0 0 0 0 0 0 0 0 0 0 0 0 0 0 0 0 0 0 0 0 0 0 0 0
0 0 0 0 0 0 0 0 0 0 0 0 0 0 0 0 0 0 0 0 0 0 0 0 0 0 0 0 0 0 0 0 0 0 0 0 0 0 0 0 0 0 0 0
0 0 0 0 0 0 0 0 0 0 0 0 0 0 0 0 0 0 0 0 0 0 0 0 0 0 0 0 0 0 0 0 0 0 0 0 0 0 0 0 0 0 0 0
0 0 0 0 0 0 0 0 0 0 0 0 0 0 0 0 0 0 0 0 0 0 0 0 0 0 0 0 0 0 0 0 0 0 0 0 0 0 0 0 0 0 0 0
0 0 0 0 0 0 0 0 0 0 0 0 0 0 0 0 0 0 0 0 0 0 0 0 0 0 0 0 0 0 0 0 0 0 0 0 0 0 0 0 0 0 0 0
0 0 0 0 0 0 0 0 0 0 0 0 0 0 0 0 0 0 0 0 0 0 0 0 0 0 0 0 0 0 0 0 0 0 0 0 0 0 0 0 0 0 0 0
0 0 0 0 0 0 0 0 0 0 0 0 0 0 0 0 0 0 0 0 0 0 0 0 0 0 0 0 0 0 0 0 0 0 0 0 0 0 0 0 0 0 0 0
0 0 0 0 0 0 0 0 0 0 0 0 0 0 0 0 0 0 0 0 0 0 0 0 0 0 0 0 0 0 0 0 0 0 0 0 0 0 0 0 0 0 0 0
0 0 0 0 0 0 0 0 0 0 0 0 0 0 0 0 0 0 0 0 0 0 0 0 0 0 0 0 0 0 0 0 0 0 0 0 0 0 0 0 0 0 0 0
0 0 0 0 0 0 0 0 0 0 0 0 0 0 0 0 0 0 0 0 0 0 0 0 0 0 0 0 0 0 0 0 0 0 0 0 0 0 0 0 0 0 0 0
0 0 0 0 0 0 0 0 0 0 0 0 0 0 0 0 0 0 0 0 0 0 0 0 0 0 0 0 0 0 0 0 0 0 0 0 0 0 0 0 0 0 0 0
0 0 0 0 0 0 0 0 0 0 0 0 0 0 0 0 0 0 0 0 0 0 0 0 0 0 0 0 0 0 0 0 0 0 0 0 0 0 0 0 0 0 0 0
0 0 0 0 0 0 0 0 0 0 0 0 0 0 0 0 0 0 0 0 0 0 0 0 0 0 0 0 0 0 0 0 0 0 0 0 0 0 0 0 0 0 0 0
0 0 0 0 0 0 0 0 0 0 0 0 0 0 0 0 0 0 0 0 0 0 0 0 0 0 0 0 0 0 0 0 0 0 0 0 0 0 0 0 0 0 0 0
0 0 0 0 0 0 0 0 0 0 0 0 0 0 0 0 0 0 0 0 0 0 0 0 0 0 0 0 0 0 0 0 0 0 0 0 0 0 0 0 0 0 0 0
0 0 0 -0 -0 0 0 0 0 0 0 0 0 0 0 0 0 0 0 0 0 0 0 0 0 0 0 0 0 0 0 0 0 0 0 0 0 0 0 0 0 0 0 0
0 0 0 0 0 -0 -0 0 0 0 0 0 -0 0 0 0 0 0 0 0 0 0 0 0 0 0 0 0 0 0 0 0 0 0 0 0 0 0 0 0 0 0 0 0
0 0 0 0 0 0 -0 -0 0 0 0 -0 0 0 0 0 0 0 0 0 0 0 0 0 0 0 0 0 0 0 0 0 0 0 0 0 0 0 0 0 0 0 0 0
Wind_Speed_500mb
21 12 15 19 14 4 7 15 13 21 7 18 36 33 31 26 26 29 28 24 20 18 12 7 13 16 18 19 20 21 19 19 10 4 5 7 7 7 5 13 15 14 15 17
11 22 17 6 9 6 5 8 11 5 9 7 19 38 36 30 35 36 35 33 29 21 20 16 14 17 21 22 23 22 20 18 16 11 16 10 8 7 9 13 11 11 12 13
21 5 22 16 15 15 13 13 11 12 19 6 10 23 38 32 41 37 35 33 33 32 29 23 21 20 23 24 23 23 20 16 15 13 12 11 7 6 8 7 6 7 9 12
23 13 12 20 22 21 16 5 14 11 14 9 21 12 27 44 38 41 44 44 44 41 34 30 28 24 27 27 23 21 20 19 18 19 16 13 8 10 10 7 5 6 8 10
9 20 21 29 23 23 11 5 8 13 16 15 15 12 13 20 41 41 54 56 52 48 41 37 32 30 28 26 27 25 22 21 20 19 17 16 14 13 11 8 4 3 3 5
20 2 24 25 18 19 5 4 4 8 13 12 31 17 14 15 37 38 52 61 56 50 44 37 35 35 31 26 26 25 24 21 19 20 19 19 18 16 14 11 7 6 5 6
28 15 5 9 21 17 18 12 4 8 9 12 4 22 31 17 19 27 38 56 55 49 46 42 39 37 33 31 29 28 25 22 23 20 19 18 18 19 17 14 11 8 8 10
27 19 32 24 29 15 36 29 10 9 7 12 7 17 9 6 10 7 10 49 51 48 43 38 36 33 33 35 32 29 28 26 23 20 17 18 19 20 19 17 16 17 18 19
27 28 16 23 24 28 27 36 32 27 14 10 17 24 21 11 4 10 14 40 50 48 43 38 36 41 37 35 35 34 31 28 26 23 21 22 23 23 25 25 25 23 22 22
11 18 20 19 5 26 18 19 24 16 9 14 17 23 21 14 20 18 27 39 46 46 44 40 41 43 41 36 36 35 33 31 28 25 27 29 30 31 28 27 25 24 23 20
16 14 6 6 26 31 18 23 24 18 25 7 10 8 5 9 3 25 33 41 45 47 46 44 46 44 42 40 40 39 37 34 33 34 36 36 34 31 29 27 25 23 22 19
28 10 22 21 2 17 26 44 42 20 14 27 24 37 12 5 3 10 27 36 42 45 45 43 48 49 46 44 44 42 40 38 38 39 38 36 34 32 29 27 25 23 20 16
23 11 15 9 12 14 16 30 40 39 28 32 18 14 6 8 14 16 24 36 44 46 45 43 45 50 49 50 48 46 46 47 48 44 40 38 35 33 30 28 25 22 18 17
3 24 27 37 30 20 20 34 38 36 24 47 44 46 25 15 13 20 29 39 46 50 52 48 48 50 52 53 53 52 52 51 48 46 43 40 37 34 32 29 25 22 20 17
14 14 33 46 37 30 23 33 41 44 58 35 66 47 44 42 31 36 36 39 47 55 58 57 57 58 57 57 57 58 57 54 51 49 46 43 39 36 32 29 25 23 20 17
14 20 22 37 40 40 15 23 31 51 65 50 69 54 39 21 21 32 44 50 55 59 62 65 64 66 68 67 67 65 62 59 56 52 48 44 41 38 34 29 27 24 21 17
10 14 18 41 30 28 27 47 56 40 46 47 48 73 22 30 22 36 49 56 70 76 77 80 82 81 78 77 75 73 68 64 60 55 50 47 43 39 35 33 29 25 22 18
12 13 13 21 17 39 37 45 43 58 58 49 57 59 35 43 52 63 64 72 73 73 79 86 88 84 81 79 78 74 72 68 63 59 54 49 45 42 38 35 32 28 24 20
37 20 17 20 22 21 26 41 42 40 62 50 60 68 62 65 21 55 74 78 78 78 81 86 85 86 85 88 85 82 76 71 67 62 56 52 48 44 41 38 34 31 27 23
38 41 27 18 22 30 40 29 29 8 37 54 57 60 55 45 22 49 62 80 84 87 84 88 87 90 92 93 93 87 82 77 72 65 58 53 50 47 43 39 35 32 29 25
13 25 47 39 29 17 45 8 37 22 31 15 61 77 65 37 70 101 35 63 81 92 88 85 90 99 101 99 97 92 85 80 71 65 60 56 52 48 44 41 37 34 31 28
22 13 28 28 34 47 53 30 38 47 27 61 66 50 43 74 83 71 63 46 70 87 91 92 97 101 103 102 100 95 88 78 73 66 61 57 53 50 46 42 40 37 33 30
38 33 18 10 10 32 53 47 67 65 47 52 44 45 35 51 65 65 55 58 72 85 90 94 99 104 105 103 101 97 90 84 75 69 63 57 54 51 48 46 42 39 36 34
29 15 18 24 30 34 40 57 63 62 80 63 46 40 43 48 55 68 56 60 74 84 91 97 101 106 108 103 101 97 92 82 75 69 62 59 56 54 51 48 45 42 40 38
21 11 25 35 43 45 63 50 59 67 62 62 58 59 59 50 57 62 64 68 77 84 89 96 104 106 108 109 108 100 89 82 76 69 64 60 58 56 52 48 44 43 41 39
31 33 22 26 26 31 44 46 45 68 70 76 74 64 49 45 50 56 67 71 80 83 86 91 99 103 107 107 106 98 91 83 76 71 67 62 59 56 53 50 48 46 44 42
Wind_Direction_500mb
185 205 201 194 210 30 302 212 194 225 230 245 232 240 220 199 213 208 208 202 204 174 174 172 184 179 179 193 200 211 216 225 224 197 130 138 142 138 79 70 77 68 51 47
176 226 203 196 197 221 214 212 233 193 135 209 258 250 247 201 223 218 211 205 205 189 182 187 188 182 189 195 202 210 217 218 215 197 177 190 207 143 96 91 79 61 53 35
209 96 208 203 199 211 224 240 238 253 181 241 307 262 242 226 226 223 221 212 207 202 192 189 194 202 201 201 200 202 205 208 199 188 181 181 186 139 134 113 85 66 34 28
235 161 203 204 220 215 232 208 257 239 204 244 180 285 225 216 219 217 214 209 209 204 200 199 192 209 216 211 209 206 206 203 196 182 163 172 172 203 177 147 126 66 40 42
181 199 188 208 216 206 243 107 202 204 221 281 215 262 256 216 213 217 215 209 208 207 197 205 194 208 222 218 212 206 202 202 201 200 199 195 193 186 176 176 150 86 53 64
237 22 233 226 215 205 125 172 182 255 256 256 235 217 248 196 224 227 212 212 206 201 195 198 205 210 219 216 206 200 199 198 203 200 190 187 185 185 189 190 174 159 111 94
217 211 203 231 197 203 205 186 229 221 206 248 22 219 253 237 218 232 215 205 202 197 193 190 200 202 209 210 202 198 198 195 197 188 187 191 192 185 189 188 181 159 135 107
213 218 200 185 216 196 205 205 204 237 236 307 101 247 255 298 354 169 272 195 190 192 195 190 190 195 205 207 202 198 198 195 194 193 194 196 194 190 187 181 164 147 131 119
210 230 166 186 200 212 197 220 232 283 275 274 247 247 263 201 219 218 185 175 183 190 193 190 187 199 203 204 200 199 200 196 196 196 195 198 191 180 166 155 149 141 131 120
265 266 175 184 224 232 261 212 210 225 244 246 253 263 260 236 223 198 187 188 187 188 190 190 194 200 204 207 206 203 199 198 195 197 191 180 169 162 159 153 147 140 132 123
263 249 103 146 209 207 196 221 218 229 230 254 289 263 34 9 326 202 200 197 194 191 191 191 196 202 206 206 202 201 198 196 190 180 175 170 169 165 159 155 150 144 137 131
212 276 243 218 317 250 242 220 215 220 214 233 259 265 208 133 122 195 203 200 196 195 193 196 199 202 203 201 202 199 196 191 182 176 173 173 172 165 163 160 155 151 147 142
186 226 237 233 238 215 236 233 235 231 253 246 225 249 53 187 212 212 197 191 191 192 192 191 196 199 199 200 199 196 191 184 180 178 178 176 174 171 169 166 163 160 157 153
257 234 224 230 230 192 210 218 225 236 232 242 242 248 238 213 220 197 192 193 193 192 193 194 196 199 200 199 196 193 187 185 182 181 180 180 180 176 175 174 171 170 165 163
228 247 238 249 257 270 269 223 216 217 232 223 246 244 244 253 246 212 195 193 194 196 196 196 196 197 197 195 193 190 189 187 186 185 184 183 184 183 182 181 178 176 174 174
226 256 257 266 254 246 243 252 241 226 234 238 251 260 248 272 289 192 195 195 200 203 201 198 198 198 199 197 195 192 190 190 189 188 188 188 188 188 188 186 184 183 182 184
201 216 219 249 238 247 241 229 231 244 237 239 248 246 262 247 227 204 207 203 205 206 201 201 202 203 201 199 196 193 192 191 191 191 191 191 192 193 192 191 190 191 193 196
277 226 227 249 237 234 237 242 233 239 243 241 249 257 254 250 245 238 228 221 219 213 210 206 203 204 202 199 195 194 194 194 193 194 194 195 195 196 196 196 197 199 203 209
214 240 239 240 238 266 257 233 221 228 249 241 243 250 244 245 265 263 235 232 239 237 227 212 209 205 200 198 195 195 195 195 196 197 197 197 199 199 199 200 202 205 212 218
230 210 234 211 236 236 244 244 208 176 264 237 236 245 239 220 231 251 241 235 233 231 222 213 207 202 201 198 197 196 196 197 198 198 198 199 201 201 202 205 208 212 218 226
219 219 222 227 232 237 253 190 155 180 242 302 227 242 238 215 221 240 251 237 230 220 211 209 206 203 201 198 197 197 198 200 199 200 200 201 202 203 206 209 213 217 223 230
237 248 222 233 237 238 242 191 195 223 225 249 263 260 249 229 235 242 250 240 214 209 204 205 201 200 201 200 198 198 199 199 200 201 202 202 204 207 210 213 217 221 226 232
247 237 264 244 251 320 326 246 231 239 257 252 252 254 258 244 241 234 238 222 212 207 205 202 200 198 200 200 200 200 200 200 200 201 202 204 206 210 213 216 219 223 228 234
240 217 244 254 244 241 282 294 280 265 250 256 251 253 263 257 243 234 226 211 204 203 203 201 197 199 200 199 201 204 202 200 201 202 202 205 209 212 215 219 221 227 233 238
265 242 252 257 264 280 278 276 285 275 285 274 265 257 256 254 243 232 218 208 205 204 202 201 201 201 201 198 200 202 201 202 200 201 205 207 211 214 218 222 228 234 239 244
242 248 245 255 265 240 261 268 271 302 306 306 278 267 257 248 238 220 213 209 205 201 201 200 200 201 201 199 200 201 201 202 202 202 205 210 214 216 220 224 231 237 243 248
Wind_Speed_850mb
21 12 15 19 14 4 7 15 13 21 7 18 36 33 31 26 26 29 28 24 20 18 12 7 13 16 18 19 20 21 19 19 10 4 5 7 7 7 5 13 15 14 15 17
11 22 17 6 9 6 5 8 11 5 9 7 19 38 36 30 35 36 35 33 29 21 20 16 14 17 21 22 23 22 20 18 16 11 16 10 8 7 9 13 11 11 12 13
21 5 22 16 15 15 13 13 11 12 19 6 10 23 38 32 41 37 35 33 33 32 29 23 21 20 23 24 23 23 20 16 15 13 12 11 7 6 8 7 6 7 9 12
23 13 12 20 22 21 16 5 14 11 14 9 21 12 27 44 38 41 44 44 44 41 34 30 28 24 27 27 23 21 20 19 18 19 16 13 8 10 10 7 5 6 8 10
9 20 21 29 23 23 11 5 8 13 16 15 15 12 13 20 41 41 54 56 52 48 41 37 32 30 28 26 27 25 22 21 20 19 17 16 14 13 11 8 4 3 3 5
20 2 24 25 18 19 5 4 4 8 13 12 31 17 14 15 37 38 52 61 56 50 44 37 35 35 31 26 26 25 24 21 19 20 19 19 18 16 14 11 7 6 5 6
28 15 5 9 21 17 18 12 4 8 9 12 4 22 31 17 19 27 38 56 55 49 46 42 39 37 33 31 29 28 25 22 23 20 19 18 18 19 17 14 11 8 8 10
27 19 32 24 29 15 36 29 10 9 7 12 7 17 9 6 10 7 10 49 51 48 43 38 36 33 33 35 32 29 28 26 23 20 17 18 19 20 19 17 16 17 18 19
27 28 16 23 24 28 27 36 32 27 14 10 17 24 21 11 4 10 14 40 50 48 43 38 36 41 37 35 35 34 31 28 26 23 21 22 23 23 25 25 25 23 22 22
11 18 20 19 5 26 18 19 24 16 9 14 17 23 21 14 20 18 27 39 46 46 44 40 41 43 41 36 36 35 33 31 28 25 27 29 30 31 28 27 25 24 23 20
16 14 6 6 26 31 18 23 24 18 25 7 10 8 5 9 3 25 33 41 45 47 46 44 46 44 42 40 40 39 37 34 33 34 36 36 34 31 29 27 25 23 22 19
28 10 22 21 2 17 26 44 42 20 14 27 24 37 12 5 3 10 27 36 42 45 45 43 48 49 46 44 44 42 40 38 38 39 38 36 34 32 29 27 25 23 20 16
23 11 15 9 12 14 16 30 40 39 28 32 18 14 6 8 14 16 24 36 44 46 45 43 45 50 49 50 48 46 46 47 48 44 40 38 35 33 30 28 25 22 18 17
3 24 27 37 30 20 20 34 38 36 24 47 44 46 25 15 13 20 29 39 46 50 52 48 48 50 52 53 53 52 52 51 48 46 43 40 37 34 32 29 25 22 20 17
14 14 33 46 37 30 23 33 41 44 58 35 66 47 44 42 31 36 36 39 47 55 58 57 57 58 57 57 57 58 57 54 51 49 46 43 39 36 32 29 25 23 20 17
14 20 22 37 40 40 15 23 31 51 65 50 69 54 39 21 21 32 44 50 55 59 62 65 64 66 68 67 67 65 62 59 56 52 48 44 41 38 34 29 27 24 21 17
10 14 18 41 30 28 27 47 56 40 46 47 48 73 22 30 22 36 49 56 70 76 77 80 82 81 78 77 75 73 68 64 60 55 50 47 43 39 35 33 29 25 22 18
12 13 13 21 17 39 37 45 43 58 58 49 57 59 35 43 52 63 64 72 73 73 79 86 88 84 81 79 78 74 72 68 63 59 54 49 45 42 38 35 32 28 24 20
37 20 17 20 22 21 26 41 42 40 62 50 60 68 62 65 21 55 74 78 78 78 81 86 85 86 85 88 85 82 76 71 67 62 56 52 48 44 41 38 34 31 27 23
38 41 27 18 22 30 40 29 29 8 37 54 57 60 55 45 22 49 62 80 84 87 84 88 87 90 92 93 93 87 82 77 72 65 58 53 50 47 43 39 35 32 29 25
13 25 47 39 29 17 45 8 37 22 31 15 61 77 65 37 70 101 35 63 81 92 88 85 90 99 101 99 97 92 85 80 71 65 60 56 52 48 44 41 37 34 31 28
22 13 28 28 34 47 53 30 38 47 27 61 66 50 43 74 83 71 63 46 70 87 91 92 97 101 103 102 100 95 88 78 73 66 61 57 53 50 46 42 40 37 33 30
38 33 18 10 10 32 53 47 67 65 47 52 44 45 35 51 65 65 55 58 72 85 90 94 99 104 105 103 101 97 90 84 75 69 63 57 54 51 48 46 42 39 36 34
29 15 18 24 30 34 40 57 63 62 80 63 46 40 43 48 55 68 56 60 74 84 91 97 101 106 108 103 101 97 92 82 75 69 62 59 56 54 51 48 45 42 40 38
21 11 25 35 43 45 63 50 59 67 62 62 58 59 59 50 57 62 64 68 77 84 89 96 104 106 108 109 108 100 89 82 76 69 64 60 58 56 52 48 44 43 41 39
31 33 22 26 26 31 44 46 45 68 70 76 74 64 49 45 50 56 67 71 80 83 86 91 99 103 107 107 106 98 91 83 76 71 67 62 59 56 53 50 48 46 44 42
Wind_Direction_850mb
185 205 201 194 210 30 302 212 194 225 230 245 232 240 220 199 213 208 208 202 204 174 174 172 184 179 179 193 200 211 216 225 224 197 130 138 142 138 79 70 77 68 51 47
176 226 203 196 197 221 214 212 233 193 135 209 258 250 247 201 223 218 211 205 205 189 182 187 188 182 189 195 202 210 217 218 215 197 177 190 207 143 96 91 79 61 53 35
209 96 208 203 199 211 224 240 238 253 181 241 307 262 242 226 226 223 221 212 207 202 192 189 194 202 201 201 200 202 205 208 199 188 181 181 186 139 134 113 85 66 34 28
235 161 203 204 220 215 232 208 257 239 204 244 180 285 225 216 219 217 214 209 209 204 200 199 192 209 216 211 209 206 206 203 196 182 163 172 172 203 177 147 126 66 40 42
181 199 188 208 216 206 243 107 202 204 221 281 215 262 256 216 213 217 215 209 208 207 197 205 194 208 222 218 212 206 202 202 201 200 199 195 193 186 176 176 150 86 53 64
237 22 233 226 215 205 125 172 182 255 256 256 235 217 248 196 224 227 212 212 206 201 195 198 205 210 219 216 206 200 199 198 203 200 190 187 185 185 189 190 174 159 111 94
217 211 203 231 197 203 205 186 229 221 206 248 22 219 253 237 218 232 215 205 202 197 193 190 200 202 209 210 202 198 198 195 197 188 187 191 192 185 189 188 181 159 135 107
213 218 200 185 216 196 205 205 204 237 236 307 101 247 255 298 354 169 272 195 190 192 195 190 190 195 205 207 202 198 198 195 194 193 194 196 194 190 187 181 164 147 131 119
210 230 166 186 200 212 197 220 232 283 275 274 247 247 263 201 219 218 185 175 183 190 193 190 187 199 203 204 200 199 200 196 196 196 195 198 191 180 166 155 149 141 131 120
265 266 175 184 224 232 261 212 210 225 244 246 253 263 260 236 223 198 187 188 187 188 190 190 194 200 204 207 206 203 199 198 195 197 191 180 169 162 159 153 147 140 132 123
263 249 103 146 209 207 196 221 218 229 230 254 289 263 34 9 326 202 200 197 194 191 191 191 196 202 206 206 202 201 198 196 190 180 175 170 169 165 159 155 150 144 137 131
212 276 243 218 317 250 242 220 215 220 214 233 259 265 208 133 122 195 203 200 196 195 193 196 199 202 203 201 202 199 196 191 182 176 173 173 172 165 163 160 155 151 147 142
186 226 237 233 238 215 236 233 235 231 253 246 225 249 53 187 212 212 197 191 191 192 192 191 196 199 199 200 199 196 191 184 180 178 178 176 174 171 169 166 163 160 157 153
257 234 224 230 230 192 210 218 225 236 232 242 242 248 238 213 220 197 192 193 193 192 193 194 196 199 200 199 196 193 187 185 182 181 180 180 180 176 175 174 171 170 165 163
228 247 238 249 257 270 269 223 216 217 232 223 246 244 244 253 246 212 195 193 194 196 196 196 196 197 197 195 193 190 189 187 186 185 184 183 184 183 182 181 178 176 174 174
226 256 257 266 254 246 243 252 241 226 234 238 251 260 248 272 289 192 195 195 200 203 201 198 198 198 199 197 195 192 190 190 189 188 188 188 188 188 188 186 184 183 182 184
201 216 219 249 238 247 241 229 231 244 237 239 248 246 262 247 227 204 207 203 205 206 201 201 202 203 201 199 196 193 192 191 191 191 191 191 192 193 192 191 190 191 193 196
277 226 227 249 237 234 237 242 233 239 243 241 249 257 254 250 245 238 228 221 219 213 210 206 203 204 202 199 195 194 194 194 193 194 194 195 195 196 196 196 197 199 203 209
214 240 239 240 238 266 257 233 221 228 249 241 243 250 244 245 265 263 235 232 239 237 227 212 209 205 200 198 195 195 195 195 196 197 197 197 199 199 199 200 202 205 212 218
230 210 234 211 236 236 244 244 208 176 264 237 236 245 239 220 231 251 241 235 233 231 222 213 207 202 201 198 197 196 196 197 198 198 198 199 201 201 202 205 208 212 218 226
219 219 222 227 232 237 253 190 155 180 242 302 227 242 238 215 221 240 251 237 230 220 211 209 206 203 201 198 197 197 198 200 199 200 200 201 202 203 206 209 213 217 223 230
237 248 222 233 237 238 242 191 195 223 225 249 263 260 249 229 235 242 250 240 214 209 204 205 201 200 201 200 198 198 199 199 200 201 202 202 204 207 210 213 217 221 226 232
247 237 264 244 251 320 326 246 231 239 257 252 252 254 258 244 241 234 238 222 212 207 205 202 200 198 200 200 200 200 200 200 200 201 202 204 206 210 213 216 219 223 228 234
240 217 244 254 244 241 282 294 280 265 250 256 251 253 263 257 243 234 226 211 204 203 203 201 197 199 200 199 201 204 202 200 201 202 202 205 209 212 215 219 221 227 233 238
265 242 252 257 264 280 278 276 285 275 285 274 265 257 256 254 243 232 218 208 205 204 202 201 201 201 201 198 200 202 201 202 200 201 205 207 211 214 218 222 228 234 239 244
242 248 245 255 265 240 261 268 271 302 306 306 278 267 257 248 238 220 213 209 205 201 201 200 200 201 201 199 200 201 201 202 202 202 205 210 214 216 220 224 231 237 243 248